Location: Newark
(34.0131°N, 4.3314°W)
Time: 08:11:28
(UTC+00:00)

A-11 Canister half - Pass Details

Date: 31 October 2019
Orbit: 1514 x 1686 km, 47.2° (Epoch: 12 November)

Event Time Altitude Azimuth Distance (km) Brightness Sun altitude
Rises 03:44:30 0° 300° (WNW) 4,888 - -35.9°
Reaches altitude 10° 03:47:55 10° 307° (NW) 3,879 - -35.2°
Exits shadow 03:54:11 37° 337° (NNW) 2,335 9.7 -33.9°
Maximum altitude 03:57:19 46° 19° (NNE) 2,040 9.6 -33.3°
Drops below altitude 10° 04:06:23 10° 91° (E) 3,742 11.9 -31.4°
Sets 04:09:36 0° 97° (E) 4,704 12.7 -30.7°
